Weather History for Beckley, WV

Change the Weather History Date:

Tuesday, August 20, 2013

  Actual Average Record
Temperature  
Mean Temperature 69 °F 70 °F  
Max Temperature 82 °F 79 °F 94 °F (1936)
Min Temperature 56 °F 60 °F 33 °F (1940)
Degree Days  
Heating Degree Days 0 0  
Month to date heating degree days 15 0  
Since 1 June heating degree days 27 47  
Since 1 July heating degree days 20 8  
Cooling Degree Days 4 5  
Month to date cooling degree days 85 113  
Year to date cooling degree days 482 446  
Since 1 June cooling degree days 415 405  
Growing Degree Days 18 (Base 50)    
Moisture  
Dew Point 59 °F    
Average Humidity 74    
Maximum Humidity 100    
Minimum Humidity 47    
Precipitation  
Precipitation 0.00 in 0.10 in 2.49 in (1947)
Month to date precipitation 4.64 2.45  
Year to date precipitation 29.46 28.64  
Snow  
Snow 0.00 in - - ()
Month to date snowfall 0.0  
Since 1 September snowfall 72.0  
Snow Depth 0.00 in    
Sea Level Pressure  
Sea Level Pressure 30.18 in    
Wind  
Wind Speed 2 mph (ENE)    
Max Wind Speed 9 mph    
Max Gust Speed 12 mph    
Visibility 6 miles    
Events Fog    
T = Trace of Precipitation, MM = Missing Value Source: NWS Daily Summary

Daily Weather History Graph

Daily Weather History Graph

Search for Another Location

Airport:

Trip Planner

Search our weather history database for the weather conditions in past years. The results will help you decide how hot, cold, wet, or windy it might be!

Date:

Astronomy

Aug. 20, 2013 Rise Set
Actual Time 6:44 AM EDT 8:10 PM EDT
Civil Twilight 6:16 AM EDT 8:37 PM EDT
Nautical Twilight 5:43 AM EDT 9:10 PM EDT
Astronomical Twilight 5:08 AM EDT 9:45 PM EDT
Moon 7:42 PM EDT (8/20) 6:12 AM EDT (8/20)
Length of Visible Light 14h 21m
Length of Day
13h 25m
Full, 100% of the Moon is Illuminated
Aug 20
Full
Aug 20
Full
Aug 28
Last Quarter
Sep 5
New
Sep 12
First Quarter

Hourly Weather History & Observations

Time (EDT) Temp. Heat Index Dew Point Humidity Pressure Visibility Wind Dir Wind Speed Gust Speed Precip Events Conditions
12:51 AM 61.0 °F - 59.0 °F 93% 30.15 in 5.0 mi SSE 3.5 mph - N/A   Clear
1:51 AM 61.0 °F - 59.0 °F 93% 30.13 in 5.0 mi Calm Calm - N/A   Clear
2:10 AM 60.8 °F - 57.2 °F 88% 30.21 in 1.8 mi Calm Calm - N/A   Partly Cloudy
2:25 AM 60.8 °F - 57.2 °F 88% 30.20 in 2.5 mi Calm Calm - N/A   Partly Cloudy
2:36 AM 60.8 °F - 57.2 °F 88% 30.20 in 3.0 mi Calm Calm - N/A   Partly Cloudy
2:51 AM 59.0 °F - 57.0 °F 93% 30.13 in 5.0 mi Calm Calm - N/A   Clear
3:07 AM 59.0 °F - 57.2 °F 94% 30.20 in 1.5 mi Calm Calm - N/A   Clear
3:20 AM 59.0 °F - 57.2 °F 94% 30.20 in 3.0 mi Calm Calm - N/A   Clear
3:51 AM 59.0 °F - 57.0 °F 93% 30.13 in 2.5 mi Calm Calm - N/A   Clear
3:55 AM 59.0 °F - 57.2 °F 94% 30.20 in 0.8 mi Calm Calm - N/A   Clear
4:12 AM 59.0 °F - 57.2 °F 94% 30.20 in 1.5 mi Calm Calm - N/A   Clear
4:17 AM 59.0 °F - 57.2 °F 94% 30.20 in 3.0 mi Calm Calm - N/A   Clear
4:26 AM 57.2 °F - 55.4 °F 94% 30.20 in 1.5 mi Calm Calm - N/A   Clear
4:37 AM 57.2 °F - 55.4 °F 94% 30.20 in 0.8 mi Calm Calm - N/A   Clear
4:43 AM 57.2 °F - 55.4 °F 94% 30.20 in 2.5 mi Calm Calm - N/A   Clear
4:51 AM 57.9 °F - 55.9 °F 93% 30.13 in 4.0 mi Calm Calm - N/A   Clear
5:04 AM 57.2 °F - 55.4 °F 94% 30.20 in 1.8 mi Calm Calm - N/A   Clear
5:11 AM 57.2 °F - 55.4 °F 94% 30.20 in 2.0 mi Calm Calm - N/A   Partly Cloudy
5:20 AM 57.2 °F - 55.4 °F 94% 30.20 in 1.0 mi Calm Calm - N/A   Mist
5:28 AM 57.2 °F - 55.4 °F 94% 30.20 in 0.2 mi Calm Calm - N/A Fog Fog
5:51 AM 55.9 °F - 55.0 °F 97% 30.14 in 0.8 mi Calm Calm - N/A   Mist
5:59 AM 55.4 °F - 55.4 °F 100% 30.21 in 1.0 mi Calm Calm - N/A   Mist
6:04 AM 57.2 °F - 55.4 °F 94% 30.21 in 2.0 mi Calm Calm - N/A   Partly Cloudy
6:12 AM 57.2 °F - 55.4 °F 94% 30.21 in 6.0 mi Calm Calm - N/A   Clear
6:51 AM 57.0 °F - 55.0 °F 93% 30.16 in 4.0 mi Calm Calm - N/A   Clear
7:51 AM 59.0 °F - 57.9 °F 96% 30.17 in 6.0 mi Calm Calm - N/A   Clear
8:17 AM 62.6 °F - 59.0 °F 88% 30.24 in 2.5 mi Calm Calm - N/A   Clear
8:26 AM 62.6 °F - 60.8 °F 94% 30.24 in 5.0 mi Calm Calm - N/A   Clear
8:51 AM 66.0 °F - 62.1 °F 87% 30.18 in 7.0 mi Calm Calm - N/A   Clear
9:51 AM 71.1 °F - 63.0 °F 75% 30.18 in 10.0 mi Calm Calm - N/A   Clear
10:51 AM 73.0 °F - 62.1 °F 68% 30.19 in 10.0 mi North 4.6 mph - N/A   Clear
11:51 AM 75.0 °F - 61.0 °F 62% 30.19 in 10.0 mi Calm Calm - N/A   Clear
12:51 PM 77.0 °F - 59.0 °F 54% 30.19 in 10.0 mi North 4.6 mph - N/A   Mostly Cloudy
1:51 PM 79.0 °F - 62.1 °F 56% 30.18 in 10.0 mi Calm Calm - N/A   Mostly Cloudy
2:51 PM 79.0 °F - 59.0 °F 50% 30.17 in 10.0 mi Calm Calm - N/A   Mostly Cloudy
3:51 PM 78.1 °F - 57.9 °F 50% 30.14 in 10.0 mi NW 3.5 mph - N/A   Clear
4:51 PM 82.0 °F 82.7 °F 61.0 °F 49% 30.12 in 10.0 mi North 4.6 mph - N/A   Clear
5:51 PM 78.1 °F - 60.1 °F 54% 30.13 in 10.0 mi NNE 4.6 mph - N/A   Partly Cloudy
6:51 PM 78.1 °F - 60.1 °F 54% 30.13 in 10.0 mi NNE 4.6 mph - N/A   Partly Cloudy
7:51 PM 75.0 °F - 63.0 °F 66% 30.15 in 10.0 mi ENE 3.5 mph - N/A   Overcast
8:51 PM 73.0 °F - 63.0 °F 71% 30.14 in 10.0 mi SE 3.5 mph - N/A   Mostly Cloudy
9:51 PM 71.1 °F - 64.0 °F 78% 30.16 in 10.0 mi SE 8.1 mph - N/A   Partly Cloudy
10:51 PM 69.1 °F - 64.9 °F 87% 30.16 in 10.0 mi South 3.5 mph - N/A   Clear
11:51 PM 69.1 °F - 64.9 °F 87% 30.16 in 10.0 mi SSE 4.6 mph - N/A   Clear